Weather in Port Moresby

Papua New Guinea     9°26′12″S   147°11′36″E
temp.,
°C
wind,
m/s
gust,
m/s
humid.,
%
clouds,
%
prec.,
mm/h
press.,
hPa
HPBL,
m
15 june, tue
tue1501:00+24ne1189100 0.0 101093
04:00+23n119191 0.0 100992
07:00+23nne228711 0.0 101198
10:00+28wnw11675 0.0 1012471
13:00+28ssw32707 0.0 1010738
16:00+27s337810 0.0 1008527
19:00+26se238592 0.3 1010202
22:00+25e118797 0.3 101192
16 june, wed
wed1601:00+24ne118999 0.0 101188
04:00+24nne2291100 0.0 101094
07:00+24ene118743 0.0 101198
10:00+28sw217573 0.0 1012535
13:00+27ssw227767 0.0 1010533
16:00+27s227619 0.4 1010521
19:00+26se338780 1.8 1011130
22:00+25ese23895 1.9 1012154
17 june, thu
thu1701:00+24ene11917 0.0 101194
04:00+24n12926 0.0 1010112
07:00+24ene1191100 0.0 1012108
10:00+27ssw1078100 0.0 1012430
13:00+28ssw327523 0.0 1010684
16:00+27s337821 0.2 1009503
19:00+26se4588100 0.4 1010214
22:00+25ese338974 0.4 1011179
18 june, fri
fri1801:00+24ese229252 0.0 1010144
04:00+24e229271 0.0 1010129
07:00+24e12905 0.0 1011119
10:00+28ssw117426 0.0 1012595
13:00+28s337425 0.2 1010666
16:00+27sse7780100 3.1 1009554
19:00+25se568891 4.4 1010261
22:00+25se469153 4.7 1012312
19 june, sat
sat1901:00+24ese349262 0.0 1010251
04:00+24ese45927 0.0 1010266
07:00+24ese3491100 0.0 1011256
10:00+27se347352 0.0 1012771
13:00+27sse788247 1.9 1010527
16:00+26se798448 6.0 1009623
19:00+25se6988100 3.1 1011503
22:00+24ese469216 3.1 1012273